Regional Weather Roundup
Issued by NWS

Home | Current Version | Previous Version | Text Only | Print | Product List | Glossary Off
Versions: 1 2 3 4 5 6 7 8 9 10 11 12 13 14 15 16 17 18 19 20 21 22 23 24 25 26 27 28 29 30 31 32 33 34 35 36 37 38 39 40 41 42 43 44 45 46 47 48 49 50

000
ASUS43 KIND 171709
RWRIN

WEATHER ROUNDUP FOR INDIANA
NATIONAL WEATHER SERVICE INDIANAPOLIS IN
1200 PM EST SAT FEB 17 2018

NOTE: "FAIR" INDICATES FEW OR NO CLOUDS BELOW 12,000 FEET WITH NO
SIGNIFICANT WEATHER AND/OR OBSTRUCTIONS TO VISIBILITY.

* - STATION DOES NOT REPORT WEATHER SUCH AS PRECIPITATION OR FOG.

+ - STATION NOT QUALITY CONTROLLED BY THE NATIONAL WEATHER SERVICE.
    USE DATA WITH CAUTION...ESPECIALLY DEWPOINT AND RELATIVE
    HUMIDITY OBSERVATIONS.

INZ001>003-010>013-019-020-171800-
NORTHWEST INDIANA

CITY           SKY/WX    TMP DP  RH WIND       PRES   REMARKS
KNOX *+        FAIR      32  27  80 S10       30.08F WCI  24
LA PORTE +     FAIR      29  24  81 SW7       30.08F WCI  22
MICHIGAN CITY+ FAIR      32  23  69 S9        30.07F WCI  24
MONTICELLO +   PTSUNNY   32  26  77 S5        30.06F WCI  27
RENSSELAER +   PTSUNNY   34  27  75 S14       30.06F WCI  24
VALPARAISO     FAIR      32  26  78 S5        30.06F WCI  27

$$

LMZ046-743>745-171800-
SOUTHERN LAKE MICHIGAN

STATION/POSITION TIME  TEMP    WIND        PRES    WAVE
                       AIR SEA DIR/SP/G            HT
                 (UTC) (F)     (DEG/KT/KT) (MB)    (FT)
BURNS HARBOR     1640   29     190/  8/ 11 1019.0F
MICHIGAN CITY    1640   29     180/ 10/ 12   N/A

$$

INZ004-005-014>016-021>024-171800-
NORTH CENTRAL INDIANA

CITY           SKY/WX    TMP DP  RH WIND       PRES   REMARKS
ELKHART        SUNNY     30  23  74 S10       30.07F WCI  21
GOSHEN         FAIR      32  25  75 SW10      30.08R WCI  24
LOGANSPORT +   FAIR      32  27  80 S9        30.08F WCI  24
PERU/GRISSOM   FAIR      32  32  99 S8        30.07F WCI  25
ROCHESTER +    FAIR      34  28  80 S8        30.09S WCI  27
SOUTH BEND     FAIR      30  24  78 SW10      30.09R WCI  21
WARSAW +       FAIR      32  27  80 S5        30.08F WCI  27

$$

INZ006>009-017-018-025>027-171800-
NORTHEAST INDIANA

CITY           SKY/WX    TMP DP  RH WIND       PRES   REMARKS
AUBURN +       FAIR      32  27  80 S3        30.08F
FORT WAYNE     PTSUNNY   32  26  78 S10       30.09F WCI  24
HUNTINGTON +   PTSUNNY   31  25  79 S6        30.09F WCI  25
KENDALLVILLE + FAIR      31  26  82 SW7       30.08R WCI  24

$$

INZ028-029-035-036-043>045-051>053-171800-
WEST CENTRAL INDIANA

CITY           SKY/WX    TMP DP  RH WIND       PRES   REMARKS
CRAWFORDSVL +  FAIR      31  28  90 S7        30.08F WCI  24
GREENCASTLE +  CLOUDY    32  28  86 S6        30.08F WCI  26
LAFAYETTE      PTSUNNY   33  27  78 S8        30.07F WCI  26
TERRE HAUTE    LGT SNOW  33  31  92 S12       30.08F FOG     WCI  24

$$

INZ030>032-037>040-046>048-054>057-064-065-171800-
CENTRAL INDIANA

CITY           SKY/WX    TMP DP  RH WIND       PRES   REMARKS
ANDERSON       CLOUDY    32  27  80 S10       30.08F WCI  24
COLUMBUS       LGT SNOW  30  28  93 S5        30.13S VSB 1   WCI  25
FISHERS *+     CLOUDY    32  30  93 S7        30.08  WCI  26
FRANKFORT +    PTSUNNY   35  30  83 S5        30.08F WCI  30
GREENWOOD *+   CLOUDY   N/A N/A N/A S13       30.10S
INDIANAPOLIS   LGT SNOW  32  27  81 S14       30.08F WCI  22
-EAGLE CREEK   CLOUDY    34  25  69 S12       30.07F WCI  25
KOKOMO +       FAIR      32  27  81 S9        30.08F WCI  24
MARION +       PTSUNNY   31  27  83 CALM      30.10S
MT COMFORT *+  CLOUDY    32  30  93 S7        30.09S WCI  26
SHELBYVILLE    LGT SNOW  33  29  85 S10       30.09R FOG     WCI  25
ZIONSVILLE +   PTSUNNY   31  26  81 NW5       30.09S WCI  27

$$

INZ033-034-041-042-049-050-058-059-171800-
EAST CENTRAL INDIANA

CITY           SKY/WX    TMP DP  RH WIND       PRES   REMARKS
MUNCIE         CLOUDY    34  26  72 S8        30.07F WCI  27
RICHMOND +     CLOUDY    32  28  86 S8        30.11R WCI  25

$$

INZ060-061-067>069-081>083-085>088-171800-
SOUTHWEST INDIANA

CITY           SKY/WX    TMP DP  RH WIND       PRES   REMARKS
EVANSVILLE     LGT SNOW  32  32 100 NE3       30.12F VSB 3/4
HUNTINGBURG +  LGT SNOW  33  31  92 E6        30.11F FOG     WCI  28
WASHINGTON +   LGT SNOW  32  31  95 SE5       30.10F VSB 3/4 WCI  27

$$

INZ062-063-066-070>080-084-089>092-171800-
SOUTH CENTRAL AND SOUTHEAST INDIANA

CITY           SKY/WX    TMP DP  RH WIND       PRES   REMARKS
BATESVILLE +   FOG       32  32 100 MISG      30.10F VSB 1
BEDFORD +      SNOW      32  30  93 CALM      30.11F VSB 1/2
BLOOMINGTON    LGT SNOW  31  29  92 SE7       30.09F VSB 1   WCI  24
FRENCH LICK *+ CLOUDY    32 N/A N/A CALM      30.11F VSB 3/4
MADISON *+     CLOUDY    32  32 100 SE3       30.13S
NORTH VERNON + LGT SNOW  30  28  93 CALM      30.12F VSB 1
SEYMOUR +      LGT SNOW  34  32  93 SE3       30.12F VSB 3/4

$$





USA.gov is the U.S. government's official web portal to all federal, state and local government web resources and services.